Regional Weather Roundup
Issued by NWS

Home | Current Version | Previous Version | Graphics & Text | Print | Product List | Glossary On
Versions: 1 2 3 4 5 6 7 8 9 10 11 12 13 14 15 16 17 18 19 20 21 22 23 24 25 26 27 28 29 30 31 32 33 34 35 36 37 38 39 40 41 42 43 44 45 46 47 48 49 50
000
ASUS43 KMKX 240511
RWRWI

WISCONSIN REGIONAL WEATHER ROUNDUP
NATIONAL WEATHER SERVICE MILWAUKEE/SULLIVAN WI
1200 AM CDT WED AUG 24 2016

NOTE: "FAIR" INDICATES FEW OR NO CLOUDS BELOW 12,000 FEET WITH NO
SIGNIFICANT WEATHER AND/OR OBSTRUCTIONS TO VISIBILITY.

WIZ001-002-006>008-014>016-023>028-240600-
NORTHWEST WISCONSIN

CITY           SKY/WX    TMP DP  RH WIND       PRES   REMARKS
SUPERIOR ARPT  MOCLDY    67  64  90 S5        29.83F
ASHLAND        CLOUDY    72  63  73 S5        29.88F
HAYWARD        CLOUDY    70  63  78 S10G20    29.89F
SIREN          CLOUDY    70  63  77 SE5       29.87S
CUMBERLAND     CLOUDY    66  63  88 SE10      29.87F
RICE LAKE      CLOUDY    67  62  86 SE9       29.88F
CHETEK         NOT AVBL
LADYSMITH      LGT RAIN  69  64  83 SE7       29.91F
EAU CLAIRE     LGT RAIN  68  67  96 SE9       29.85F
MENOMONIE      DRIZZLE   67  67  99 CALM      29.89R
NEW RICHMOND   LGT RAIN  67  66  96 CALM      29.87S
OSCEOLA        RAIN      69  69 100 S9        29.89S
$$

WIZ003>005-009-010-017-018-240600-
NORTH CENTRAL WISCONSIN

CITY           SKY/WX    TMP DP  RH WIND       PRES   REMARKS
MANITOWISH WTR NOT AVBL
ARBOR VITAE    CLOUDY    69  64  82 S8        29.97F
WOODRUFF       CLOUDY    69  64  82 S8        29.97F
RHINELANDER    CLOUDY    68  63  84 S9        29.99F
EAGLE RIVER    CLOUDY    65  59  81 S5        29.98F
LAND O LAKES   MOCLDY    67  61  80 S6        29.99F
PHILLIPS       CLOUDY    68  63  82 SE9       29.95F
TOMAHAWK       CLOUDY    65  61  85 SE3       29.97F
MEDFORD        LGT RAIN  65  65 100 SE7       29.95F
MERRILL        CLOUDY    67  63  87 SE6       29.98F
$$

WIZ029-030-035-036-043>047-240600-
CENTRAL WISCONSIN

CITY           SKY/WX    TMP DP  RH WIND       PRES   REMARKS
WAUSAU         LGT RAIN  68  61  78 SE9       29.95F
MOSINEE        LGT RAIN  66  63  88 SE7       29.98F
MARSHFIELD     HVY RAIN  67  64  90 SW6       29.97F FOG
STEVENS POINT  LGT RAIN  68  62  80 SE7       29.99F
WAUPACA        CLOUDY    71  64  77 SE5       30.01S
WAUTOMA        CLOUDY    70  64  81 SE6       29.99F
WISC RAPIDS    LGT RAIN  67  66  97 SE6       29.99F
CAMP DOUGLAS   TSTM      70  68  94 SW5       29.98R
$$

WIZ011>013-019>022-031-037>040-048>050-240600-
NORTHEAST WISCONSIN

CITY           SKY/WX    TMP DP  RH WIND       PRES   REMARKS
ANTIGO         CLOUDY    64  62  91 S9        30.01F
SHAWANO        CLOUDY    69  62  77 CALM      30.01F
OCONTO         NOT AVBL
STURGEON BAY   CLOUDY    67  63  87 S7        30.03F
GREEN BAY      PTCLDY    67  64  90 S6        30.02F
MANITOWOC      PTCLDY    67  61  81 S7        30.04F
APPLETON       CLOUDY    70  59  68 S13G18    30.00F
CLINTONVILLE   CLOUDY    68  61  77 S3        30.01F
OSHKOSH        MOCLDY    69  61  75 S9        30.01F
$$

WIZ032>034-041-042-053>061-240600-
SOUTHWEST WISCONSIN

CITY           SKY/WX    TMP DP  RH WIND       PRES   REMARKS
LA CROSSE      RAIN      68  32  26 SE10      29.93F
SPARTA         HVY RAIN  66  65  99 CALM      29.98F
VIROQUA        CLOUDY    65  65 100 W6        30.02R
BOSCOBEL       TSTM      69  68  96 NW8       29.96R VSB 1/2
PRAIRIE DU CHI DRIZZLE   67  65  93 CALM      29.94F
PLATTEVILLE    CLOUDY    72  70  95 S20G26    30.00R
$$

WIZ056-057-062-063-064-067-068-240600-
SOUTH CENTRAL WISCONSIN

CITY           SKY/WX    TMP DP  RH WIND       PRES   REMARKS
REEDSBURG      NOT AVBL
BARABOO/DELLS  CLOUDY    72  64  76 S15G25    29.97S
LONE ROCK      CLOUDY    72  67  84 S16       29.96S THUNDER
MINERAL POINT  CLOUDY    72  70  94 S14       30.00R
MADISON        CLOUDY    73  65  75 S18G25    29.99F
MIDDLETON      CLOUDY    73  66  76 S13G21    30.00F
WATERTOWN      CLOUDY    70  65  83 S7        30.02F
MONROE         CLOUDY    70  64  83 S18G25    30.01S
JANESVILLE     CLOUDY    73  64  73 S12G23    30.01F
$$

WIZ051-052-058>065-066-070>072-240600-
SOUTHEAST WISCONSIN

CITY           SKY/WX    TMP DP  RH WIND       PRES   REMARKS
MILWAUKEE      MOCLDY    73  61  65 S9        30.04F
WAUKESHA       CLOUDY    70  59  68 S10       30.05F
MILWAUKEE/TIMM PTCLDY    72  57  60 S12       30.04F
RACINE         CLOUDY    73  63  70 S13       30.07F
BURLINGTON     CLOUDY    70  61  73 S7        30.04F
KENOSHA        CLOUDY    73  62  68 S9        30.06F
FOND DU LAC    CLOUDY    69  62  78 S9        30.02F
SHEBOYGAN      PTCLDY    66  61  84 S8        30.04F
WEST BEND      PTCLDY    68  61  77 S7        30.03F
JUNEAU         CLOUDY    70  63  79 SE10      30.03F
$$

LSZ147-162-240600-
LAKE SUPERIOR

STATION/POSITION TIME  TEMP    WIND        PRES    WAVE
                       AIR SEA DIR/SP/G            HT/PER
                 (UTC) (F)     (DEG/KT/KT) (MB)    (FT/S)
W MID LAKE BUOY  0450   70 67  180/ 10/ 12 1011.1F   1/ 3
DEVILS ISLAND    0400   73     190/  8/ 13 1011.3F
PORT WING        0400   74     160/ 11/ 16 1011.2F
SAXON HARBOR     0400   74     180/  4/  9 1012.2
$$

LMZ867-665-643>646-240600-
LAKE MICHIGAN

STATION/POSITION TIME  TEMP    WIND        PRES    WAVE
                       AIR SEA DIR/SP/G            HT/PER
                 (UTC) (F)     (DEG/KT/KT) (MB)    (FT/S)
CHAMBERS ISLAND  0400   71     170/  7/ 14 1016.6F
S GREEN BAY BUOY 0400   72 73  180/ 16/ 17 1016.2F
N MID LAKE BUOY  0450   72 71  190/ 16/ 17 1016.2F   5/ 6
NORTHPORT PIER   0300   69     160/  7/ 13 1017.3F
SISTER BAY       0422   70     200/ 16/ 21   N/A
KEWAUNEE LAKESHO 0400   65     180/  7/  9 1017.0F
SHEBOYGAN LAKESH 0500   67     180/ 17/ 19 1016.4F
PORT WASHINGTON  0400   64     200/  4/  7 1018.3F
ATWATER BUOY     0500   62 51  170/  8/ 10   N/A
MILWAUKEE LAKESH 0410   66     160/ 10/ 11   N/A
S MID LAKE BUOY  0450   75 75  160/ 17/ 21 1017.6F   3/ 4
KENOSHA   LAKESH 0500   69     180/ 12/ 18 1017.3F
$$

TC  - TEMPERATURE IN CELSIUS
VSB - VISIBILITY IN STATUTE MILES
WCI - WIND CHILL INDEX
HX  - HEAT INDEX




USA.gov is the U.S. government's official web portal to all federal, state and local government web resources and services.